Regional Weather Roundup
Issued by NWS Goodland, KS

Home | Current Version | Previous Version | Text Only | Print | Product List | Glossary Off
Versions: 1 2 3 4 5 6 7 8 9 10 11 12 13 14 15 16 17 18 19 20 21 22 23 24 25 26 27 28 29 30 31 32 33 34 35 36 37 38 39 40 41 42 43 44 45 46 47 48 49 50

442
ASUS43 KGLD 231759
RWRGLD

GOODLAND FORECAST AREA HOURLY WEATHER ROUNDUP
NATIONAL WEATHER SERVICE GOODLAND KS
1200 PM MDT MON MAY 23 2016

...OFFICIAL OBSERVATIONS...

CITY           SKY/WX    TMP DP  RH WIND       PRES   REMARKS
GOODLAND KS    SUNNY     72  47  40 E10       29.87F
HILL CITY KS   PTSUNNY   75  58  55 SE6       29.81F
IMPERIAL NEB   SUNNY     71  37  28 VRB3      29.86F
MCCOOK NEB     SUNNY     72  51  47 NE5       29.84F
AKRON CO       MOSUNNY   65  31  28 CALM      29.92S
BURLINGTON CO  SUNNY     71  38  29 MISG      29.90S
LIMON CO       CLOUDY    64  34  32 E7G17     29.95S
$$

...UNOFFICIAL OBSERVATIONS...

CITY           SKY/WX    TMP DP  RH WIND       PRES   REMARKS
COLBY KS       SUNNY     70  57  64 N10       29.87S
LENORA KS        N/A     71  32  23 MISG        N/A
NORTON KS      SUNNY     73  55  53 E3        29.82S
SHARON SPRINGS   N/A     72  52  48 NE13G20     N/A
KIT CARSON CO    N/A     71  39  30 MISG        N/A
YUMA CO          N/A     68  34  28 E8          N/A
$$




USA.gov is the U.S. government's official web portal to all federal, state and local government web resources and services.